User: anonymous   Login
Location: Irma
(52.9170°N, 111.2330°W)
Time: 18:37:55
(UTC-07:00)
Language:

Meteor 1-24 Rocket - Orbit

View from above orbital plane
View from above orbital plane
View from above satellite
View from above satellite

Ground track
Ground track

The orbit data is extracted from the following two-line orbital elements,

1 08800U 76032B   14328.78158722  .00000244  00000-0  12693-3 0  1695
2 08800 081.2529 047.2554 0092967 314.0061 164.9684 14.09983748986363
Epoch (UTC): 24 November 2014 18:45:29
Eccentricity: 0.0092967
inclination: 81.2529°
perigee height: 792 km
apogee height: 927 km
right ascension of ascending node: 47.2554°
argument of perigee: 314.0061°
revolutions per day: 14.09983748
mean anomaly at epoch: 164.9684°
orbit number at epoch: 98636

The dashed part of the orbit path shows where the satellite is in the earth's shadow,  

DLR